#timestamp,LO_Frequency,Hit,StdDev 
1506182415.2,286046997.3,N
1506182435.9,286046999.2,N
1506182455.7,286046998.9,N
1506182475.6,286047000.1,N
1506182495.4,286047001.6,N
1506182515.2,286047005.4,N
1506182535.1,286046999.8,N
1506182536.0,286046999.8,N
1506182555.8,286047000.2,N
1506182575.6,286047004.4,N
1506182595.5,286047000.3,N
1506182615.3,286047000.2,N
1506182635.1,286046999.4,N
1506182655.8,286047001.0,N
1506182675.7,286047000.8,N
1506182695.5,286046999.3,N
1506182715.3,286046995.1,N
1506182735.2,286046997.3,N
1506182755.9,286046998.2,N
1506182775.7,286046997.7,N
1506182795.6,286046997.1,N
1506182815.4,286046998.9,N
1506182835.2,286046999.1,N
1506182855.1,286046994.9,N
1506182856.0,286046994.9,N
1506182875.8,286046995.5,N
1506182895.6,286046994.7,N
1506182915.5,286046988.8,Y
1506182935.3,286046986.9,P
1506182955.1,286046989.0,N
1506182975.9,286046989.7,N
1506182995.7,286046987.0,N
1506183015.5,286046987.5,N
1506183035.4,286046988.1,N
1506183055.2,286046986.4,Y
1506183075.0,286046998.0,P
1506183075.9,286046998.0,N
1506183095.8,286046995.7,N
1506183115.6,286046994.1,N
1506183135.4,286046990.9,N
1506183155.2,286046990.9,N
1506183175.1,286046989.2,Y
1506183176.0,286046989.2,P
1506183195.8,286046997.3,N
1506183215.7,286046995.5,N
1506183235.5,286046996.3,N
1506183255.3,286046996.4,N
1506183275.1,286046994.3,N
1506183295.9,286046991.9,Y
1506183315.7,286047000.4,P
1506183335.5,286046997.9,N
1506183355.4,286046997.1,N
1506183375.2,286046997.3,N
1506183395.0,286047000.6,N
1506183395.9,286047000.6,N
1506183415.8,286046997.2,N
1506183435.6,286046997.1,N
1506183455.4,286046995.0,N
1506183475.3,286046997.9,N
1506183495.1,286046996.4,N
1506183515.8,286046992.9,Y
1506183535.7,286046995.1,P
1506183555.5,286046997.2,N
1506183575.3,286046998.0,N
1506183595.2,286046997.0,N
1506183615.9,286046995.2,Y
1506183635.7,286047000.0,P
1506183655.6,286047001.5,N
1506183675.4,286047001.8,N
1506183695.2,286046999.7,N
1506183715.1,286046998.3,N
1506183716.0,286046998.3,N
1506183735.8,286046998.7,N
1506183755.6,286047002.4,N
1506183775.5,286047003.9,N
1506183795.3,286047002.6,N
1506183815.1,286047000.5,N
1506183835.8,286046999.9,N
1506183855.7,286047002.3,N
1506183875.5,286047000.2,N
1506183895.3,286046999.4,N
1506183915.2,286046999.5,N
1506183935.9,286046999.6,N
1506183955.7,286046997.7,N
1506183975.6,286046997.7,N
1506183995.4,286046996.5,N
1506184015.2,286046999.3,N
1506184035.1,286046999.8,N
1506184036.0,286046999.8,N
1506184055.8,286047001.8,N
1506184075.6,286047004.3,N
1506184095.4,286047002.4,N
1506184115.3,286047002.3,N
1506184135.1,286046999.7,N
1506184155.8,286046999.6,N
1506184175.7,286046996.6,N
1506184195.5,286046993.3,Y
1506184215.3,286046991.8,P
1506184235.2,286046992.5,N
1506184255.0,286046995.5,N
1506184255.9,286046995.5,N
1506184275.7,286046994.5,N
1506184295.6,286046992.5,N
1506184315.4,286046992.4,N
1506184335.2,286046995.7,N
1506184355.1,286046995.5,N
1506184356.0,286046995.5,N
1506184375.8,286046997.5,N
1506184395.6,286046998.0,N
1506184415.5,286046996.1,N
1506184435.3,286046994.1,N
1506184455.1,286046990.6,Y
1506184475.9,286046996.2,P
1506184495.7,286046993.5,P
1506184515.5,286046991.7,P
1506184535.4,286046990.4,Y
1506184555.2,286046993.5,P
1506184575.0,286046993.3,P
1506184575.9,286046993.3,P
1506184595.8,286046996.0,Y
1506184615.6,286047003.9,P
1506184635.4,286047003.9,N
1506184655.3,286047001.4,N
1506184675.1,286047002.3,N
1506184676.0,286047002.3,N
1506184695.8,286047001.9,N
1506184715.7,286047002.2,N
1506184735.5,286047001.1,N
1506184755.3,286046998.1,N
1506184775.1,286046999.3,N
1506184795.9,286046998.2,N
1506184815.7,286047000.9,N
1506184835.5,286046998.8,N
1506184855.4,286047000.6,N
1506184875.2,286047000.9,N
1506184895.0,286046998.2,N
1506184895.9,286046998.2,N
1506184915.8,286046999.2,N
1506184935.6,286047002.5,N
1506184955.4,286047001.7,N
1506184975.3,286047002.6,N
1506184995.1,286047001.0,N
1506184996.0,286047001.0,N
1506185015.8,286047001.1,N
1506185035.6,286046998.1,N
1506185055.5,286047000.4,N
1506185075.3,286047000.0,N
1506185095.1,286046998.6,N
1506185115.9,286047000.3,N
1506185135.7,286047002.6,N
1506185155.5,286047002.9,N
1506185175.4,286047000.2,N
1506185195.2,286047004.3,N
1506185215.0,286047001.3,N
1506185215.9,286047001.3,N
1506185235.8,286047003.5,N
1506185255.6,286047005.9,Y
1506185275.4,286047000.0,P
1506185295.3,286046998.8,P
1506185315.1,286046997.3,P
1506185316.0,286046997.3,N
1506185335.8,286046997.9,N
1506185355.7,286046998.0,N
1506185375.5,286046997.5,N
1506185395.3,286046997.6,N
1506185415.1,286046997.9,N
1506185435.9,286046995.4,Y
1506185455.7,286046997.8,P
1506185475.5,286046997.7,P
1506185495.4,286046997.1,P
1506185515.2,286046995.4,Y
1506185535.1,286047001.1,P
1506185536.0,286047001.1,N
1506185555.8,286046999.3,N
1506185575.6,286047001.2,N
1506185595.4,286046999.8,N
1506185615.3,286047002.4,N
1506185635.1,286047002.0,N
1506185655.8,286047000.3,N
1506185675.7,286047000.8,N
1506185695.5,286047000.3,N
1506185715.3,286047001.5,N
1506185735.2,286046998.1,N
1506185755.9,286046994.0,Y
1506185775.7,286046993.9,P
1506185795.6,286046999.2,N
1506185815.4,286047001.6,N
1506185835.2,286047009.4,Y
1506185855.1,286047014.6,P
1506185856.0,286047014.6,N
1506185875.8,286047016.7,N
1506185895.6,286047020.3,N
1506185915.5,286047020.5,N
1506185935.3,286047025.5,Y
1506185955.1,286047015.5,P
1506185975.9,286047013.2,P
1506185995.7,286047014.9,P
